User: anonymous   Login
Location: Unspecified
(0.0000°N, 0.0000°E)
Time: 06:44:02
(UTC+01:00)
Language:

Ariane H10 - Orbit

View from above orbital plane
View from above orbital plane
View from above satellite
View from above satellite

Ground track
Ground track

The orbit data is extracted from the following two-line orbital elements,

1 19622U 88098B   14331.70000906  .00002317  00000-0  10585-2 0  9339
2 19622 003.9472 072.0423 6448600 081.8167 261.7120 03.35995312272464
Epoch (UTC): 27 November 2014 16:48:00
Eccentricity: 0.6448600
inclination: 3.9472°
perigee height: 309 km
apogee height: 24594 km
right ascension of ascending node: 72.0423°
argument of perigee: 81.8167°
revolutions per day: 3.35995312
mean anomaly at epoch: 261.7120°
orbit number at epoch: 27246

The dashed part of the orbit path shows where the satellite is in the earth's shadow,  

DLR